Location: Casaglia
(44.0333°N, 11.5167°E)
Time: 18:28:15
(UTC+00:00)

SL-08 R/B - Pass Details

Date: 07 June 2020
Orbit: 674 x 739 km, 98.4° (Epoch: 03 July)

Event Time Altitude Azimuth Distance (km) Brightness Sun altitude
Exits shadow 01:55:01 - 164° (SSE) 2,552 5.9 -13.6°
Reaches altitude 10° 01:56:04 10° 165° (SSE) 2,116 5.5 -13.4°
Maximum altitude 02:00:42 89° 81° (E) 683 3.2 -12.9°
Drops below altitude 10° 02:05:20 10° 347° (NNW) 2,118 6.3 -12.4°
Sets 02:07:34 0° 347° (NNW) 3,037 7.2 -12.1°
